Location: Newark
(25.4800°N, 85.7200°E)
Time: 12:14:48
(UTC+00:00)

Explorer 11/Cluster Stage 4 - Pass Details

Date: 27 August 2019
Orbit: 467 x 1260 km, 28.8° (Epoch: 16 September)

Event Time Altitude Azimuth Distance (km) Brightness Sun altitude
Rises 00:07:54 0° 207° (SSW) 3,292 9.4 1.9°
Reaches altitude 10° 00:10:54 10° 189° (S) 2,512 9.0 2.6°
Maximum altitude 00:15:14 20° 144° (SE) 2,086 9.2 3.6°
Drops below altitude 10° 00:20:09 10° 101° (E) 2,916 11.1 4.7°
Sets 00:23:57 0° 86° (E) 4,004 13.0 5.5°
